Station CPXC1 - Cal Poly Pier, CA Image indicating link to RSS feed of recent meteorological observations for station CPXC1


Conditions at CPXC1 as of
(10:58 pm PDT on 06/23/2024)
0558 GMT on 06/24/2024:
     

Click on the graph icon in the table below to see a time series plot of the last five days of that observation.

5-day plot - Wind Direction Wind Direction (WDIR): SE ( 130 deg true )
5-day plot - Wind Speed Wind Speed (WSPD): 4.1 kts
5-day plot - Atmospheric Pressure Atmospheric Pressure (PRES):29.92 in
5-day plot - Air Temperature Air Temperature (ATMP): 56.8 °F
5-day plot - Dew Point Dew Point (DEWP): 54.9 °F
5-day plot - Wind Speed at 10 Meters Wind Speed at 10 meters (WSPD10M): 5.8 kts
5-day plot - Wind Speed at 20 Meters Wind Speed at 20 meters (WSPD20M): 5.8 kts
5-day plot -  Wind Speed, Wind Gust and Atmospheric Pressure Combined plot of Wind Speed, Gust, and Air Pressure
Previous observations
TIME
(PDT)
5-day plot - Wind Direction
WDIR
 
5-day plot - Wind Speed
WSPD
kts
5-day plot - Wind Gust
GST
kts
5-day plot - Wave Height
WVHT
ft
5-day plot - Dominant Wave Period
DPD
sec
5-day plot - Average Wave Period
APD
sec
5-day plot - Mean Wave Direction
MWD
 
5-day plot - Atmospheric Pressure
PRES
in
5-day plot - Pressure Tendency
PTDY
in
5-day plot - Air Temperature
ATMP
°F
5-day plot - Water Temperature
WTMP
°F
5-day plot - Dew Point
DEWP
°F
5-day plot - Salinity
SAL
psu
5-day plot - Visibility
VIS
nmi
5-day plot - Tide (above MLLW)
TIDE
ft
2024-06-23 10:54 pmESE 5.1-----29.92- 56.8- 54.9---
2024-06-23 10:48 pmESE 5.1-----29.92- 56.8- 54.7---
2024-06-23 10:42 pmESE 5.1-----29.92- 56.8- 54.9---
2024-06-23 10:36 pmESE 5.1-----29.92- 57.0- 54.9---
2024-06-23 10:30 pmESE 5.1-----29.92- 57.2- 55.0---
2024-06-23 10:24 pmESE 4.1-----29.92- 57.2- 55.0---
2024-06-23 10:18 pmESE 2.9-----29.92- 57.4- 55.0---
2024-06-23 10:12 pmESE 4.1-----29.92- 57.4- 55.0---
2024-06-23 10:06 pmSSE 2.9-----29.92- 57.4- 55.2---
2024-06-23 10:00 pm SE 4.1-----29.92+0.03 57.6- 55.2---
2024-06-23 09:58 pm SE 5.1-----29.91- 57.6- 55.2---
2024-06-23 09:54 pmSSE 2.9-----29.91- 57.6- 55.2---
2024-06-23 09:48 pm SE 4.1-----29.91- 57.6- 55.2---
2024-06-23 09:42 pmESE 4.1-----29.91- 57.6- 55.2---
2024-06-23 09:36 pmESE 5.1-----29.91- 57.6- 55.2---
2024-06-23 09:30 pmESE 7.0-----29.91- 57.4- 55.0---
2024-06-23 09:24 pmESE 7.0-----29.90- 57.4- 55.0 33.84--
2024-06-23 09:18 pm SE 7.0-----29.90- 57.4- 55.0---
2024-06-23 09:12 pmESE 6.0-----29.90- 57.4- 55.0---
2024-06-23 09:06 pmESE 6.0-----29.90- 57.4- 55.0---
2024-06-23 09:00 pm E 5.1-----29.90+0.01 57.4- 55.0---
2024-06-23 08:58 pm E 5.1-----29.90- 57.6- 55.2---
2024-06-23 08:54 pmESE 4.1-----29.90- 57.4- 55.0 33.84--
2024-06-23 08:48 pmESE 2.9-----29.90- 57.2- 55.0---
2024-06-23 08:42 pmESE 7.0-----29.90- 57.0- 54.9---
2024-06-23 08:36 pmESE 7.0-----29.90- 57.4- 55.0---
2024-06-23 08:30 pm E 6.0-----29.90- 57.6- 55.0---
2024-06-23 08:24 pm E 4.1-----29.90- 57.9- 55.2 33.84--
2024-06-23 08:18 pm E 4.1-----29.90- 58.1- 55.4---
2024-06-23 08:12 pm E 5.1-----29.90- 58.1- 55.4---
2024-06-23 08:06 pm E 6.0-----29.89- 57.9- 55.2---
2024-06-23 08:00 pmESE 6.0-----29.89- 58.1- 55.2---
2024-06-23 07:58 pmESE 7.0-----29.89- 58.1- 55.2---
2024-06-23 07:54 pmESE 6.0-----29.89- 58.5- 55.6 33.84--
2024-06-23 07:48 pmESE 6.0-----29.89- 59.0- 55.9---
2024-06-23 07:42 pmESE 5.1-----29.89- 59.0- 55.6---
2024-06-23 07:36 pm E 6.0-----29.89- 59.5- 55.8---
2024-06-23 07:30 pm E 4.1-----29.89- 59.7- 55.9---
2024-06-23 07:24 pm E 1.9-----29.89- 60.3- 56.3 33.85--
2024-06-23 07:18 pm E 5.1-----29.89- 60.4- 56.3---
2024-06-23 07:12 pm E 4.1-----29.89- 60.6- 56.5---
2024-06-23 07:06 pmNNE 1.9-----29.89- 60.6- 56.7---
2024-06-23 07:00 pm E 4.1-----29.89-0.01 61.0- 56.8---
2024-06-23 06:54 pm E 2.9-----29.88- 60.8- 56.7 33.84--
2024-06-23 06:48 pm E 4.1-----29.88- 61.0- 56.7---
2024-06-23 06:44 pm E 4.1-----29.89- 60.8- 56.5---
2024-06-23 06:43 pm E 4.1-----29.89- 61.2- 56.7---
2024-06-23 06:42 pmESE 1.9-----29.89- 61.0- 56.5---
2024-06-23 06:36 pmESE 5.1-----29.89- 61.3- 57.0---
2024-06-23 06:30 pm E 5.1-----29.88- 61.2- 56.8 33.84--
2024-06-23 06:24 pmNNW 1.9-----29.89- 61.3- 57.2 33.83--
2024-06-23 06:18 pmSSE 4.1-----29.89- 61.3- 56.7---
2024-06-23 06:12 pm E 5.1-----29.88- 60.6- 55.9---
2024-06-23 06:06 pm E 4.1-----29.88- 61.0- 56.1---
2024-06-23 06:00 pm E 6.0-----29.88-0.03 61.0- 56.3 33.84--
2024-06-23 05:58 pm E 5.1-----29.88- 60.8- 56.1---
2024-06-23 05:54 pm E 5.1-----29.88- 60.6- 56.1 33.85--
2024-06-23 05:48 pm E 6.0-----29.88- 60.6- 56.1---
2024-06-23 05:42 pmESE 2.9-----29.89- 60.4- 55.9---
2024-06-23 05:36 pm E 4.1-----29.88- 60.4- 56.3---
2024-06-23 05:30 pm E 5.1-----29.89- 60.8- 56.5 33.83--
2024-06-23 05:24 pm E 5.1-----29.88- 61.3- 56.7 33.84--
2024-06-23 05:18 pm E 5.1-----29.89- 61.9- 56.5---
2024-06-23 05:12 pmESE 6.0-----29.89- 61.9- 56.5---
2024-06-23 04:58 pm E 6.0-----29.89- 61.9- 56.8 33.83--
2024-06-23 04:54 pm SE 5.1-----29.89- 61.9- 56.8 33.84--
2024-06-23 04:48 pm NE 2.9-----29.89- 61.7- 56.7---
2024-06-23 04:42 pmESE 6.0-----29.89- 61.5- 56.5---
2024-06-23 04:36 pmENE 2.9-----29.89- 61.7- 56.7---
2024-06-23 04:30 pmESE 4.1-----29.89- 61.2- 56.7 33.83--
2024-06-23 04:24 pmESE 5.1-----29.90- 60.8- 56.5 33.84--
2024-06-23 04:18 pm E 7.0-----29.90- 61.2- 56.5---
2024-06-23 04:12 pm E 8.0-----29.90- 61.0- 56.5---
2024-06-23 04:06 pmESE 5.1-----29.90- 61.0- 56.5---
2024-06-23 04:00 pmESE 1.9-----29.90-0.02 60.4- 55.9 33.83--
2024-06-23 03:58 pm E 5.1-----29.90- 60.4- 56.3---
2024-06-23 03:54 pmESE 8.0-----29.90- 60.1- 56.1 33.83--
2024-06-23 03:48 pm E 8.0-----29.91- 60.3- 56.3---
2024-06-23 03:42 pmESE 5.1-----29.91- 60.4- 56.5---
2024-06-23 03:36 pm E 7.0-----29.90- 60.6- 57.0---
2024-06-23 03:30 pm E 1.9-----29.91- 61.3- 57.7 33.84--
2024-06-23 03:24 pmESE 7.0-----29.91- 59.9- 56.7 33.84--
2024-06-23 03:18 pm E 8.9-----29.91- 59.5- 56.5---
2024-06-23 03:12 pm E 8.9-----29.91- 59.0- 55.9---
2024-06-23 03:06 pm E 5.1-----29.91- 59.0- 56.1---
2024-06-23 03:00 pm E 8.9-----29.91-0.02 59.4- 56.5---
2024-06-23 02:54 pm E 8.9-----29.91- 58.8- 55.9 33.83--
2024-06-23 02:48 pm E 8.9-----29.91- 58.5- 55.6---
2024-06-23 02:44 pm E 11.1-----29.91- 58.5- 55.6---
2024-06-23 02:43 pmESE 9.9-----29.91- 58.6- 55.6---
2024-06-23 02:42 pm E 11.1-----29.91- 58.6- 55.8---
2024-06-23 02:36 pmESE 6.0-----29.91- 58.8- 55.9---
2024-06-23 02:30 pmESE 8.9-----29.91- 59.0- 55.8 33.82--
2024-06-23 02:24 pm E 7.0-----29.91- 59.0- 55.8 33.82--
2024-06-23 02:18 pmESE 6.0-----29.91- 59.2- 55.9---
2024-06-23 02:12 pmESE 9.9-----29.91- 59.4- 56.1---
2024-06-23 02:06 pm E 8.0-----29.91- 59.7- 56.3---
2024-06-23 02:00 pmESE 6.0-----29.91-0.01 60.3- 56.8---
2024-06-23 01:54 pm E 8.9-----29.91- 59.7- 56.8 33.80--
2024-06-23 01:48 pm E 6.0-----29.91- 59.2- 56.3---
2024-06-23 01:44 pmESE 4.1-----29.91- 59.2- 56.1---
2024-06-23 01:43 pm E 7.0-----29.91- 59.2- 56.1---
2024-06-23 01:42 pm E 8.9-----29.91- 59.2- 56.1---
2024-06-23 01:36 pm E 6.0-----29.91- 59.0- 55.9---
2024-06-23 01:30 pm E 8.0-----29.92- 59.7- 56.3---
2024-06-23 01:24 pm E 11.1-----29.92- 59.4- 56.3 33.73--
2024-06-23 01:18 pmESE 8.9-----29.92- 58.6- 55.6---
2024-06-23 01:12 pm E 7.0-----29.93- 59.4- 56.5---
2024-06-23 01:06 pm E 11.1-----29.93- 58.8- 55.8---
2024-06-23 01:00 pm E 11.1-----29.93+0.00 58.3- 55.2---
2024-06-23 12:54 pm E 7.0-----29.92- 58.5- 55.4 33.82--
2024-06-23 12:48 pm E 8.9-----29.93- 58.1- 54.9---
2024-06-23 12:44 pmESE 8.9-----29.93- 58.1- 54.9---
2024-06-23 12:43 pmESE 8.9-----29.93- 58.1- 54.9---
2024-06-23 12:42 pmESE 11.1-----29.93- 58.1- 54.7---
2024-06-23 12:36 pm E 8.0-----29.93- 58.1- 54.5---
2024-06-23 12:30 pmESE 8.0-----29.93- 58.5- 54.7 33.82--
2024-06-23 12:24 pmESE 8.0-----29.93- 58.8- 54.9 33.84--
2024-06-23 12:18 pmESE 1.9-----29.93- 58.5- 54.7---
2024-06-23 12:12 pm E 4.1-----29.93- 59.0- 54.5---
2024-06-23 12:06 pm NE 2.9-----29.93- 60.1- 55.2---
2024-06-23 12:00 pmESE 1.9-----29.93+0.00 61.0- 55.8 33.80--
2024-06-23 11:54 am E 1.9-----29.93- 61.2- 56.3 33.84--
2024-06-23 11:48 am SE 1.0-----29.93- 60.3- 56.1---
2024-06-23 11:42 am E 4.1-----29.93- 59.4- 55.4---
2024-06-23 11:36 amENE 1.9-----29.93- 60.3- 55.9---
2024-06-23 11:30 am E 1.0-----29.93- 59.9- 55.4---
2024-06-23 11:24 amESE 1.9-----29.93- 59.7- 55.6 33.78--
2024-06-23 11:18 am E 1.9-----29.93- 59.7- 54.9---
2024-06-23 11:12 am E 1.9-----29.93- 60.3- 55.8---
2024-06-23 11:06 amESE 1.9-----29.93- 58.3- 54.3---
2024-06-23 11:00 amSSE 1.9-----29.93+0.00 58.6- 54.9 33.81--
2024-06-23 10:58 am- 0.0-----29.93- 58.6- 55.0---
2024-06-23 10:54 amSSE 1.9-----29.93- 58.5- 55.0 33.79--
2024-06-23 10:48 am S 4.1-----29.93- 57.6- 54.3---
2024-06-23 10:42 am S 1.0-----29.93- 57.4- 54.5---
2024-06-23 10:36 am S 4.1-----29.93- 56.7- 54.0---
2024-06-23 10:30 am S 4.1-----29.93- 56.3- 54.0 33.80--
2024-06-23 10:24 amSSE 6.0-----29.92- 55.4- 52.7 33.81--
2024-06-23 10:18 am S 1.0-----29.92- 56.3- 53.6---
2024-06-23 10:12 am SE 1.9-----29.92- 55.8- 53.6---
2024-06-23 10:06 amSSW 1.9-----29.92- 55.0- 52.9---
2024-06-23 10:00 amSSW 1.9-----29.92+0.01 54.5- 52.5---
2024-06-23 09:58 am SW 1.9-----29.93- 54.7- 52.7---
2024-06-23 09:54 am S 1.9-----29.92- 54.3- 52.3 33.81--
2024-06-23 09:48 am S 1.9-----29.93- 54.7- 52.7---
2024-06-23 09:42 am E 1.0-----29.92- 55.0- 53.2---
2024-06-23 09:36 am S 1.9-----29.92- 54.7- 53.1---
2024-06-23 09:30 am- 0.0-----29.93- 55.0- 53.6 33.79--
2024-06-23 09:24 am- 0.0-----29.93- 54.5- 53.2 33.81--
2024-06-23 09:18 amSSE 1.9-----29.93- 53.8- 52.5---
2024-06-23 09:12 am S 1.9-----29.93- 53.2- 52.2---
2024-06-23 09:06 am S 1.9-----29.93- 53.4- 52.3---
2024-06-23 09:00 amESE 1.9-----29.93+0.04 53.2- 52.3 33.79--
2024-06-23 08:58 amSSE 1.0-----29.93- 53.1- 52.2---
2024-06-23 08:54 am E 1.9-----29.92- 53.4- 52.5 33.83--
2024-06-23 08:48 amESE 1.9-----29.92- 53.4- 52.7---
2024-06-23 08:42 amESE 1.0-----29.92- 53.1- 52.5---
2024-06-23 08:36 am SE 2.9-----29.92- 52.0- 51.4---
2024-06-23 08:30 am SE 1.9-----29.92- 52.5- 52.0 33.80--
2024-06-23 08:24 am- 0.0-----29.92- 52.3- 51.8 33.83--
2024-06-23 08:18 amESE 1.9-----29.93- 52.0- 51.4---
2024-06-23 08:12 am E 1.9-----29.93- 52.3- 51.8---
2024-06-23 08:06 am- 0.0-----29.93- 51.8- 51.4---
2024-06-23 08:00 amESE 1.9-----29.93+0.03 51.4- 50.9 33.81--
2024-06-23 07:58 am E 1.9-----29.92- 51.4- 50.9---
2024-06-23 07:54 amESE 1.9-----29.92- 51.8- 51.3 33.82--
2024-06-23 07:48 amENE 1.9-----29.92- 51.4- 51.1---
2024-06-23 07:42 am- 0.0-----29.92- 51.6- 51.1---
2024-06-23 07:36 amESE 1.9-----29.92- 50.9- 50.5---
2024-06-23 07:30 amESE 1.9-----29.92- 50.9- 50.5 33.78--
2024-06-23 07:24 am- 0.0-----29.92- 50.9- 50.5 33.80--
2024-06-23 07:18 amESE 1.0-----29.91- 51.1- 50.5---
2024-06-23 07:12 am E 1.9-----29.91- 50.9- 50.4---
2024-06-23 07:06 amENE 1.0-----29.91- 51.1- 50.5---
2024-06-23 07:00 am NE 1.9-----29.91+0.02 50.9- 50.4 33.80--
2024-06-23 06:58 am NE 1.9-----29.91- 50.9- 50.5---
2024-06-23 06:54 am E 1.0-----29.91- 51.3- 50.7 33.80--
2024-06-23 06:48 amENE 2.9-----29.91- 51.4- 50.9---
2024-06-23 06:42 am- 0.0-----29.91- 51.1- 50.5---
2024-06-23 06:36 am E 1.0-----29.90- 51.4- 50.9---
2024-06-23 06:30 amNNW 1.0-----29.90- 51.3- 50.9 33.81--
2024-06-23 06:24 am N 1.9-----29.90- 51.4- 50.9 33.79--
2024-06-23 06:18 amENE 2.9-----29.90- 51.3- 50.7---
2024-06-23 06:12 amESE 1.0-----29.90- 51.4- 50.9---
2024-06-23 06:06 amENE 1.0-----29.90- 51.3- 50.7---
2024-06-23 06:00 amENE 1.0-----29.89+0.00 51.1- 50.5 33.77--
2024-06-23 05:58 amENE 1.0-----29.89- 50.9- 50.5---
2024-06-23 05:54 am SE 1.0-----29.89- 50.7- 50.2 33.81--
2024-06-23 05:48 am- 0.0-----29.89- 50.5- 50.2---
2024-06-23 05:42 am E 1.9-----29.89- 50.7- 50.2---
2024-06-23 05:36 amENE 2.9-----29.89- 50.9- 50.4---
2024-06-23 05:30 amENE 1.0-----29.88- 51.3- 50.9 33.78--
2024-06-23 05:24 am- 0.0-----29.89- 51.4- 50.9 33.80--
2024-06-23 05:18 am NE 1.9-----29.88- 51.3- 50.9---
2024-06-23 05:12 am E 1.9-----29.89- 51.3- 50.7---
2024-06-23 05:06 am E 2.9-----29.89- 51.4- 50.9---
2024-06-23 05:00 amESE 1.9-----29.89+0.00 51.4- 50.9 33.78--
2024-06-23 04:58 am E 1.9-----29.89- 51.4- 50.9---
2024-06-23 04:54 am E 1.9-----29.89- 51.4- 50.9 33.80--
2024-06-23 04:48 am- 0.0-----29.89- 51.4- 50.9---
2024-06-23 04:42 am E 1.9-----29.89- 51.4- 50.9---
2024-06-23 04:36 am- 0.0-----29.89- 51.6- 51.1---
2024-06-23 04:30 amESE 1.9-----29.89- 51.6- 51.1 33.79--
2024-06-23 04:24 am- 0.0-----29.89- 51.4- 51.1 33.83--
2024-06-23 04:18 amWSW 1.9-----29.89- 51.4- 50.9---
2024-06-23 04:12 am- 0.0-----29.89- 51.4- 50.9---
2024-06-23 04:06 amNNE 1.9-----29.89- 51.4- 50.9---
2024-06-23 04:00 am NE 1.9-----29.89-0.01 51.4- 50.9 33.77--
2024-06-23 03:58 am NE 1.9-----29.89- 51.4- 50.9---
2024-06-23 03:54 amENE 1.9-----29.89- 51.4- 50.9 33.83--
2024-06-23 03:48 amENE 1.9-----29.89- 51.4- 50.9---
2024-06-23 03:42 am E 1.0-----29.89- 51.4- 50.9---
2024-06-23 03:36 amESE 1.9-----29.89- 51.6- 51.1---
2024-06-23 03:30 am- 0.0-----29.88- 51.4- 50.9 33.81--
2024-06-23 03:24 am- 0.0-----29.88- 51.4- 50.9 33.84--
2024-06-23 03:18 amENE 1.9-----29.89- 51.4- 50.9---
2024-06-23 03:12 am N 1.0-----29.89- 51.4- 50.7---
2024-06-23 03:06 amWNW 1.9-----29.89- 51.1- 50.5---
2024-06-23 03:00 am- 0.0-----29.89-0.01 51.3- 50.7---
2024-06-23 02:58 am- 0.0-----29.89- 51.3- 50.7---
2024-06-23 02:54 am E 1.9-----29.89- 51.3- 50.7 33.84--
2024-06-23 02:48 am E 1.0-----29.89- 51.1- 50.5---
2024-06-23 02:42 am- 0.0-----29.89- 51.1- 50.4---
2024-06-23 02:36 am SE 1.0-----29.90- 50.9- 50.4---
2024-06-23 02:30 amSSE 1.0-----29.89- 51.1- 50.4 33.82--
2024-06-23 02:24 am SE 1.9-----29.89- 50.9- 50.2 33.85--
2024-06-23 02:18 amSSE 1.0-----29.89- 50.9- 50.2---
2024-06-23 02:12 am- 0.0-----29.89- 51.3- 50.5---
2024-06-23 02:06 am- 0.0-----29.90- 50.9- 50.4---
2024-06-23 02:00 amESE 1.0-----29.90-0.01 51.1- 50.4 33.84--
2024-06-23 01:58 am- 0.0-----29.90- 51.1- 50.5---
2024-06-23 01:54 am- 0.0-----29.90- 51.1- 50.5 33.84--
2024-06-23 01:48 am- 0.0-----29.90- 51.1- 50.5---
2024-06-23 01:42 am W 1.9-----29.90- 51.1- 50.4---
2024-06-23 01:36 am W 1.0-----29.90- 51.1- 50.4---
2024-06-23 01:30 amWSW 1.0-----29.90- 51.3- 50.5---
2024-06-23 01:24 amSSE 1.0-----29.90- 51.3- 50.7 33.84--
2024-06-23 01:18 am- 0.0-----29.90- 51.4- 50.7---
2024-06-23 01:12 am- 0.0-----29.90- 51.6- 50.9---
2024-06-23 01:06 am- 0.0-----29.90- 51.6- 50.9---
2024-06-23 01:00 am W 1.0-----29.90-0.01 51.4- 50.7---
2024-06-23 12:54 am- 0.0-----29.90- 51.6- 51.1---
2024-06-23 12:48 am- 0.0-----29.90- 51.8- 51.1---
2024-06-23 12:42 am SE 1.0-----29.90- 51.6- 50.9---
2024-06-23 12:36 am- 0.0-----29.90- 52.0- 51.3---
2024-06-23 12:30 am- 0.0-----29.90- 51.8- 51.1---
2024-06-23 12:24 am- 0.0-----29.91- 51.8- 51.1 33.84--
2024-06-23 12:18 am- 0.0-----29.91- 52.2- 51.4---
2024-06-23 12:12 am- 0.0-----29.91- 52.2- 51.4---
2024-06-23 12:06 am- 0.0-----29.91- 51.8- 51.1---
2024-06-23 12:00 am S 1.0-----29.91+0.02 52.0- 51.3---
2024-06-22 11:58 pm- 0.0-----29.91- 52.0- 51.3 33.84--
2024-06-22 11:54 pm- 0.0-----29.91- 52.3- 51.6---

Ocean Conditions at CPXC1 as of
(10:43 pm PDT on 06/23/2024)
0543 GMT on 06/24/2024:

These oceanographic data are displayed in rounded times.

     

Click on the graph icon in the table below to see a time series plot of the last five days of that observation.

Depth (DEPTH): 9.8 ft
5-day plot - Ocean Temperature Ocean Temperature (OTMP):57.25 °F
5-day plot - Salinity Salinity (SAL):33.85 psu
5-day plot - Chlorophyll Chlorophyll (CLCON): 4.55 ug/l
5-day plot - Turbidity Turbidity (TURB): 1 FTU
Previous observations
TIME
(PDT)
DEPTH
ft
5-day plot - Ocean Temperature
OTMP
°F
5-day plot - Conductivity
COND
mS/cm
5-day plot - Salinity
SAL
psu
5-day plot - Oxygen Concentration
O2%
%
5-day plot - Oxygen Concentration
O2PPM
ppm
5-day plot - Chlorophyll
CLCON
ug/l
5-day plot - Turbidity
TURB
FTU
5-day plot - pH
PH
 
5-day plot - Eh
EH
mv
2024-06-23 10:42 pm 16.456.55-33.86-- 4.83 1--
2024-06-23 10:41 pm 23.052.29-33.88--11.07 1--
2024-06-23 10:40 pm 32.851.60-33.88--10.42 1--
2024-06-23 10:39 pm 39.451.30-33.88-- 6.92 1--
2024-06-23 10:34 pm 16.457.04-33.85-- 4.54 1--
2024-06-23 10:33 pm 9.857.43-33.85-- 4.21 1--
2024-06-23 10:13 pm 9.857.09-33.85-- 4.73 1--
2024-06-23 10:12 pm 16.456.50-33.85-- 4.98 1--
2024-06-23 10:11 pm 23.052.45-33.87-- 9.62 1--
2024-06-23 10:10 pm 32.851.58-33.88--10.77 1--
2024-06-23 10:09 pm 39.451.19-33.89-- 7.29 1--
2024-06-23 10:05 pm 19.754.03-33.82-- 6.29 1--
2024-06-23 10:04 pm 16.457.15-33.84-- 4.62 1--
2024-06-23 10:03 pm 9.857.29-33.84-- 4.40 1--
2024-06-23 09:43 pm 9.857.36-33.84-- 4.52 1--
2024-06-23 09:42 pm 16.456.48-33.85-- 4.55 1--
2024-06-23 09:41 pm 23.052.56-33.87-- 6.11 1--
2024-06-23 09:40 pm 32.851.49-33.88--10.08 1--
2024-06-23 09:39 pm 39.451.12-33.89-- 6.89 1--
2024-06-23 09:34 pm 13.157.38-33.84-- 4.57 1--
2024-06-23 09:33 pm 9.857.49-33.84-- 4.53 1--
2024-06-23 09:14 pm 3.357.67-33.84-- 4.96 1--
2024-06-23 09:13 pm 9.857.67-33.84-- 4.38 1--
2024-06-23 09:12 pm 16.454.86-33.85-- 4.56 1--
2024-06-23 09:11 pm 23.052.47-33.87-- 5.54 1--
2024-06-23 09:10 pm 32.851.48-33.88-- 9.64 1--
2024-06-23 09:09 pm 39.451.13-33.89-- 6.34 1--
2024-06-23 09:05 pm 19.754.32-33.81-- 4.74 1--
2024-06-23 09:04 pm 13.157.78-33.84-- 4.33 1--
2024-06-23 09:03 pm 9.857.78-33.84-- 4.40 1--
2024-06-23 08:43 pm 6.657.85-33.84-- 4.06 1--
2024-06-23 08:42 pm 13.157.60-33.84-- 4.47 1--
2024-06-23 08:41 pm 19.752.74-33.85-- 5.85 1--
2024-06-23 08:40 pm 29.551.57-33.88-- 8.41 1--
2024-06-23 08:39 pm 39.450.92-33.90-- 6.54 1--
2024-06-23 08:34 pm 13.157.88-33.84-- 4.40 1--
2024-06-23 08:33 pm 9.857.96-33.84-- 4.21 1--
2024-06-23 08:13 pm 6.658.10-33.84-- 4.30 1--
2024-06-23 08:12 pm 13.157.15-33.84-- 4.58 1--
2024-06-23 08:11 pm 19.752.77-33.86-- 5.28 1--
2024-06-23 08:10 pm 32.851.55-33.88-- 6.82 1--
2024-06-23 08:09 pm 39.450.99-33.89-- 6.72 1--
2024-06-23 08:05 pm 19.753.42-33.83-- 5.33 1--
2024-06-23 08:04 pm 13.157.92-33.84-- 4.42 1--
2024-06-23 08:03 pm 9.858.19-33.84-- 4.36 1--
2024-06-23 07:43 pm 3.358.30-33.84-- 4.40 1--
2024-06-23 07:42 pm 9.857.78-33.84-- 4.41 1--
2024-06-23 07:41 pm 16.453.38-33.85-- 4.71 1--
2024-06-23 07:40 pm 26.252.12-33.87-- 6.14 1--
2024-06-23 07:39 pm 36.151.28-33.89-- 6.68 1--
2024-06-23 07:34 pm 16.456.44-33.79-- 4.36 1--
2024-06-23 07:33 pm 9.858.12-33.83-- 4.40 1--
2024-06-23 07:13 pm 3.358.26-33.85-- 4.33 1--
2024-06-23 07:12 pm 9.857.94-33.84-- 4.50 1--
2024-06-23 07:11 pm 16.453.87-33.85-- 4.70 1--
2024-06-23 07:10 pm 29.551.76-33.89-- 6.04 1--
2024-06-23 07:09 pm 36.151.03-33.89-- 6.60 1--
2024-06-23 07:05 pm 19.752.88-33.85-- 5.16 1--
2024-06-23 07:04 pm 16.455.33-33.79-- 4.52 1--
2024-06-23 07:03 pm 9.858.17-33.83-- 4.31 1--
2024-06-23 06:43 pm 3.358.57-33.84-- 4.40 1--
2024-06-23 06:42 pm 13.157.16-33.84-- 4.36 1--
2024-06-23 06:41 pm 19.752.52-33.86-- 4.90 1--
2024-06-23 06:40 pm 29.551.42-33.88-- 6.64 1--
2024-06-23 06:39 pm 36.150.88-33.89-- 7.27 1--
2024-06-23 06:34 pm 13.157.56-33.83-- 4.45 1--
2024-06-23 06:33 pm 6.658.33-33.84-- 4.25 1--
2024-06-23 06:13 pm 3.358.23-33.83-- 4.22 1--
2024-06-23 06:12 pm 13.157.16-33.83-- 4.30 1--
2024-06-23 06:11 pm 19.752.52-33.86-- 4.74 1--
2024-06-23 06:10 pm 29.551.22-33.88-- 6.32 1--
2024-06-23 06:09 pm 36.150.88-33.89-- 6.46 1--
2024-06-23 06:05 pm 19.754.34-33.80-- 4.67 1--
2024-06-23 06:04 pm 13.157.90-33.83-- 4.39 1--
2024-06-23 06:03 pm 6.658.41-33.84-- 4.10 1--
2024-06-23 05:43 pm 3.358.37-33.85-- 4.02 1--
2024-06-23 05:42 pm 9.857.87-33.83-- 4.13 1--
2024-06-23 05:41 pm 16.454.84-33.85-- 4.41 1--
2024-06-23 05:40 pm 26.251.30-33.88-- 5.90 1--
2024-06-23 05:39 pm 32.850.88-33.89-- 5.61 1--
2024-06-23 05:38 pm 36.150.77-33.89-- 5.91 1--
2024-06-23 05:34 pm 13.157.36-33.81-- 4.02 1--
2024-06-23 05:33 pm 6.658.35-33.83-- 3.96 1--
2024-06-23 05:13 pm 3.358.37-33.84-- 3.90 1--
2024-06-23 05:12 pm 9.857.96-33.84-- 4.09 1--
2024-06-23 05:11 pm 16.455.47-33.84-- 4.26 1--
2024-06-23 05:10 pm 29.551.21-33.88-- 5.53 1--
2024-06-23 05:09 pm 36.150.83-33.89-- 5.39 1--
2024-06-23 05:05 pm 19.753.47-33.84-- 4.58 1--
2024-06-23 05:04 pm 13.157.67-33.82-- 4.11 1--
2024-06-23 05:03 pm 6.658.39-33.83-- 3.21 1--
2024-06-23 04:43 pm 3.358.39-33.84-- 3.44 1--
2024-06-23 04:42 pm 9.857.94-33.83-- 3.95 1--
2024-06-23 04:41 pm 16.454.14-33.87-- 4.21 1--
2024-06-23 04:40 pm 29.551.35-33.88-- 5.18 1--
2024-06-23 04:39 pm 36.150.88-33.89-- 3.81 1--
2024-06-23 04:34 pm 13.157.63-33.82-- 3.97 1--
2024-06-23 04:33 pm 6.658.35-33.83-- 3.49 1--
2024-06-23 04:13 pm 3.358.39-33.84-- 2.94 1--
2024-06-23 04:12 pm 13.156.61-33.86-- 3.46 1--
2024-06-23 04:11 pm 19.752.21-33.87-- 4.83 1--
2024-06-23 04:10 pm 29.551.22-33.88-- 5.85 1--
2024-06-23 04:09 pm 36.150.88-33.89-- 3.79 1--
2024-06-23 04:05 pm 19.753.31-33.84-- 4.11 1--
2024-06-23 04:04 pm 13.157.87-33.82-- 3.73 1--
2024-06-23 04:03 pm 6.658.23-33.83-- 3.10 1--
2024-06-23 03:43 pm 3.358.48-33.83-- 2.45 1--
2024-06-23 03:42 pm 9.857.92-33.83-- 3.49 1--
2024-06-23 03:41 pm 19.752.39-33.86-- 4.01 1--
2024-06-23 03:40 pm 29.551.13-33.89-- 6.25 1--
2024-06-23 03:39 pm 36.150.88-33.89-- 3.53 1--
2024-06-23 03:34 pm 13.157.61-33.80-- 3.54 1--
2024-06-23 03:33 pm 6.658.32-33.84-- 2.67 1--
2024-06-23 03:13 pm 3.358.41-33.84-- 2.71 1--
2024-06-23 03:12 pm 9.858.17-33.83-- 3.04 1--
2024-06-23 03:11 pm 16.453.44-33.86-- 3.94 1--
2024-06-23 03:10 pm 26.251.30-33.88-- 5.21 1--
2024-06-23 03:09 pm 32.850.97-33.89-- 4.85 1--
2024-06-23 03:08 pm 36.150.77-33.89-- 2.59 1--
2024-06-23 03:05 pm 19.752.57-33.85-- 5.28 1--
2024-06-23 03:04 pm 16.454.97-33.81-- 3.74 1--
2024-06-23 03:03 pm 9.858.32-33.83-- 2.22 1--
2024-06-23 02:43 pm 6.658.46-33.83-- 2.23 1--
2024-06-23 02:42 pm 13.155.00-33.87-- 3.20 1--
2024-06-23 02:41 pm 19.752.34-33.87-- 4.62 1--
2024-06-23 02:40 pm 29.551.06-33.89-- 5.89 1--
2024-06-23 02:39 pm 36.150.76-33.89-- 4.35 1--
2024-06-23 02:34 pm 13.157.78-33.81-- 3.13 1--
2024-06-23 02:33 pm 6.658.46-33.82-- 2.05 1--
2024-06-23 02:13 pm 3.358.46-33.82-- 2.11 1--
2024-06-23 02:12 pm 13.155.22-33.84-- 2.66 1--
2024-06-23 02:11 pm 19.752.57-33.86-- 4.56 1--
2024-06-23 02:10 pm 29.551.12-33.89-- 5.97 1--
2024-06-23 02:09 pm 36.150.72-33.89-- 4.24 1--
2024-06-23 02:05 pm 19.753.29-33.84-- 3.98 1--
2024-06-23 02:04 pm 13.155.98-33.80-- 3.39 1--
2024-06-23 02:03 pm 9.858.39-33.81-- 1.89 1--
2024-06-23 01:43 pm 3.358.48-33.80-- 1.91 1--
2024-06-23 01:42 pm 9.856.95-33.83-- 2.46 1--
2024-06-23 01:41 pm 19.752.20-33.87-- 4.15 1--
2024-06-23 01:40 pm 29.551.03-33.89-- 5.01 1--
2024-06-23 01:39 pm 36.150.72-33.89-- 3.59 1--
2024-06-23 01:34 pm 16.453.78-33.81-- 3.49 1--
2024-06-23 01:33 pm 9.857.31-33.76-- 1.83 1--
2024-06-23 01:13 pm 3.358.64-33.73-- 1.90 1--
2024-06-23 01:12 pm 13.154.07-33.85-- 2.89 1--
2024-06-23 01:11 pm 19.752.43-33.86-- 4.37 1--
2024-06-23 01:10 pm 29.550.88-33.89-- 5.26 1--
2024-06-23 01:09 pm 36.150.68-33.90-- 3.12 1--
2024-06-23 01:05 pm 19.753.33-33.84-- 3.56 1--
2024-06-23 01:04 pm 13.154.81-33.83-- 3.09 1--
2024-06-23 01:03 pm 9.856.19-33.83-- 1.76 1--
2024-06-23 12:43 pm 3.357.16-33.82-- 1.97 0--
2024-06-23 12:42 pm 13.154.50-33.85-- 2.09 1--
2024-06-23 12:41 pm 19.752.43-33.86-- 3.78 1--
2024-06-23 12:40 pm 29.550.85-33.89-- 5.78 1--
2024-06-23 12:39 pm 36.150.68-33.90-- 2.64 2--
2024-06-23 12:34 pm 13.155.36-33.84-- 2.16 1--
2024-06-23 12:33 pm 6.656.55-33.82-- 1.73 1--
2024-06-23 12:13 pm 3.356.39-33.84-- 1.88 1--
2024-06-23 12:12 pm 9.855.53-33.85-- 1.78 0--
2024-06-23 12:11 pm 19.752.56-33.87-- 3.26 1--
2024-06-23 12:10 pm 29.550.79-33.89-- 5.81 1--
2024-06-23 12:09 pm 36.150.67-33.90-- 2.41 2--
2024-06-23 12:05 pm 19.753.11-33.84-- 3.52 1--
2024-06-23 12:04 pm 13.155.35-33.84-- 1.98 1--
2024-06-23 12:03 pm 6.656.59-33.80-- 1.59 1--
2024-06-23 11:42 am 6.656.10-33.84-- 1.85 0--
2024-06-23 11:41 am 16.453.24-33.86-- 2.66 1--
2024-06-23 11:40 am 26.251.42-33.87-- 4.43 1--
2024-06-23 11:39 am 32.850.81-33.89-- 3.42 1--
2024-06-23 11:38 am 36.150.68-33.90-- 2.24 2--
2024-06-23 11:34 am 16.454.32-33.84-- 2.76 1--
2024-06-23 11:33 am 9.856.03-33.82-- 1.85 1--
2024-06-23 11:13 am 3.356.32-33.78-- 1.61 0--
2024-06-23 11:12 am 9.855.35-33.84-- 1.66 0--
2024-06-23 11:11 am 16.453.62-33.86-- 3.13 1--
2024-06-23 11:10 am 29.550.97-33.89-- 4.09 1--
2024-06-23 11:09 am 36.150.67-33.90-- 2.49 1--
2024-06-23 11:05 am 19.753.11-33.84-- 3.41 1--
2024-06-23 11:04 am 13.154.70-33.84-- 2.29 1--
2024-06-23 11:03 am 6.656.23-33.81-- 1.51 1--
2024-06-23 10:43 am 3.356.14-33.79-- 1.61 0--
2024-06-23 10:42 am 9.855.27-33.84-- 1.93 0--
2024-06-23 10:41 am 16.453.33-33.85-- 2.80 1--
2024-06-23 10:40 am 26.251.28-33.88-- 4.69 1--
2024-06-23 10:39 am 36.150.74-33.90-- 3.13 1--
2024-06-23 10:34 am 13.155.15-33.84-- 1.94 1--
2024-06-23 10:33 am 6.656.10-33.80-- 1.48 0--
2024-06-23 10:12 am 6.655.72-33.81-- 1.66 1--
2024-06-23 10:11 am 13.154.19-33.85-- 2.58 1--
2024-06-23 10:10 am 26.251.24-33.88-- 4.20 1--
2024-06-23 10:09 am 32.850.76-33.89-- 3.15 1--
2024-06-23 10:08 am 36.150.68-33.90-- 1.83 1--
2024-06-23 10:05 am 19.752.47-33.86-- 3.07 1--
2024-06-23 10:04 am 13.154.90-33.83-- 2.93 1--
2024-06-23 10:03 am 9.855.87-33.82-- 1.37 0--
2024-06-23 09:42 am 6.655.80-33.81-- 1.78 0--
2024-06-23 09:41 am 13.154.32-33.85-- 3.20 1--
2024-06-23 09:40 am 26.251.22-33.88-- 4.22 1--
2024-06-23 09:39 am 32.850.79-33.89-- 3.11 1--
2024-06-23 09:38 am 36.150.72-33.89-- 1.54 1--
2024-06-23 09:34 am 13.154.91-33.83-- 2.46 1--
2024-06-23 09:33 am 6.656.12-33.79-- 1.65 0--
2024-06-23 09:12 am 6.655.83-33.81-- 1.85 0--
2024-06-23 09:11 am 13.154.12-33.85-- 3.04 1--
2024-06-23 09:10 am 23.051.55-33.88-- 4.21 1--
2024-06-23 09:09 am 29.550.94-33.89-- 3.84 1--
2024-06-23 09:08 am 32.850.85-33.89-- 2.56 2--
2024-06-23 09:05 am 19.752.74-33.85-- 4.07 1--
2024-06-23 09:04 am 13.154.50-33.84-- 2.46 1--
2024-06-23 09:03 am 6.655.99-33.79-- 1.72 0--
2024-06-23 08:42 am 6.655.51-33.83-- 1.92 0--
2024-06-23 08:41 am 13.153.94-33.85-- 3.32 1--
2024-06-23 08:40 am 23.051.48-33.88-- 4.45 1--
2024-06-23 08:39 am 29.550.95-33.89-- 3.74 1--
2024-06-23 08:38 am 32.850.88-33.89-- 2.57 2--
2024-06-23 08:34 am 13.154.86-33.83-- 2.87 1--
2024-06-23 08:33 am 6.656.07-33.80-- 2.43 1--
2024-06-23 08:12 am 6.655.60-33.83-- 2.77 0--
2024-06-23 08:11 am 13.153.96-33.85-- 3.41 1--
2024-06-23 08:10 am 23.051.53-33.88-- 4.17 1--
2024-06-23 08:09 am 29.551.06-33.88-- 3.70 1--
2024-06-23 08:08 am 32.850.95-33.89-- 2.56 1--
2024-06-23 08:05 am 19.752.54-33.85-- 3.87 1--
2024-06-23 08:04 am 13.154.45-33.83-- 3.43 1--
2024-06-23 08:03 am 6.655.90-33.81-- 2.77 1--
2024-06-23 07:42 am 3.355.76-33.82-- 3.05 1--
2024-06-23 07:41 am 9.855.13-33.84-- 3.19 1--
2024-06-23 07:40 am 19.752.23-33.86-- 4.08 1--
2024-06-23 07:39 am 26.251.37-33.88-- 4.61 1--
2024-06-23 07:38 am 32.850.97-33.89-- 3.80 2--
2024-06-23 07:34 am 13.154.91-33.84-- 3.07 1--
2024-06-23 07:33 am 6.656.19-33.78-- 3.06 1--
2024-06-23 07:12 am 3.356.16-33.80-- 3.10 0--
2024-06-23 07:11 am 9.855.27-33.84-- 3.03 1--
2024-06-23 07:10 am 23.051.73-33.88-- 4.10 1--
2024-06-23 07:09 am 29.551.13-33.88-- 4.11 1--
2024-06-23 07:08 am 32.851.06-33.88-- 4.26 2--
2024-06-23 07:05 am 19.752.79-33.84-- 4.20 1--
2024-06-23 07:04 am 13.155.02-33.84-- 3.28 1--
2024-06-23 07:03 am 6.656.19-33.80-- 2.98 1--
2024-06-23 06:42 am 3.356.30-33.80-- 3.08 0--
2024-06-23 06:41 am 9.855.13-33.84-- 3.34 1--
2024-06-23 06:40 am 19.752.23-33.86-- 3.78 1--
2024-06-23 06:39 am 26.251.42-33.88-- 4.85 1--
2024-06-23 06:38 am 32.851.01-33.89-- 4.27 1--
2024-06-23 06:34 am 13.154.86-33.83-- 3.42 1--
2024-06-23 06:33 am 6.656.08-33.81-- 3.09 1--
2024-06-23 06:12 am 3.356.32-33.79-- 3.44 1--
2024-06-23 06:11 am 9.854.70-33.84-- 3.32 1--
2024-06-23 06:10 am 19.752.32-33.86-- 4.38 1--
2024-06-23 06:09 am 26.251.51-33.88-- 5.40 1--
2024-06-23 06:08 am 32.850.94-33.89-- 4.04 1--
2024-06-23 06:05 am 19.752.93-33.84-- 4.57 1--
2024-06-23 06:04 am 13.154.73-33.84-- 3.57 1--
2024-06-23 06:03 am 6.656.41-33.77-- 3.16 1--
2024-06-23 05:42 am 3.356.08-33.81-- 3.46 1--
2024-06-23 05:41 am 9.854.70-33.84-- 3.94 1--
2024-06-23 05:40 am 19.752.39-33.85-- 4.26 1--
2024-06-23 05:39 am 26.251.44-33.88-- 5.24 1--
2024-06-23 05:38 am 32.850.76-33.89-- 3.52 1--
2024-06-23 05:34 am 13.154.63-33.84-- 3.46 1--
2024-06-23 05:33 am 6.656.37-33.78-- 3.58 1--
2024-06-23 05:12 am 3.356.26-33.80-- 3.59 1--
2024-06-23 05:11 am 9.855.04-33.84-- 3.52 1--
2024-06-23 05:10 am 19.752.57-33.85-- 3.94 1--
2024-06-23 05:09 am 26.251.55-33.88-- 6.32 1--
2024-06-23 05:08 am 32.850.83-33.89-- 3.98 1--
2024-06-23 05:05 am 19.753.24-33.84-- 4.51 1--
2024-06-23 05:04 am 13.155.04-33.83-- 3.65 1--
2024-06-23 05:03 am 6.656.35-33.78-- 3.24 1--
2024-06-23 04:42 am 3.356.37-33.80-- 3.38 1--
2024-06-23 04:41 am 9.855.49-33.84-- 3.47 1--
2024-06-23 04:40 am 23.052.20-33.86-- 4.00 1--
2024-06-23 04:39 am 29.550.92-33.89-- 5.88 1--
2024-06-23 04:38 am 32.850.67-33.90-- 3.01 1--
2024-06-23 04:34 am 13.155.09-33.83-- 3.45 1--
2024-06-23 04:33 am 6.656.26-33.79-- 3.17 1--
2024-06-23 04:12 am 6.655.56-33.83-- 3.34 1--
2024-06-23 04:11 am 13.154.45-33.84-- 3.81 1--
2024-06-23 04:10 am 23.052.18-33.86-- 4.24 1--
2024-06-23 04:09 am 29.550.83-33.89-- 5.01 1--
2024-06-23 04:08 am 32.850.65-33.90-- 2.19 1--
2024-06-23 04:05 am 19.753.76-33.84-- 3.88 1--
2024-06-23 04:04 am 13.154.91-33.84-- 3.66 1--
2024-06-23 04:03 am 6.656.08-33.77-- 3.21 1--
2024-06-23 03:42 am 6.655.45-33.83-- 3.92 0--
2024-06-23 03:41 am 13.154.16-33.85-- 3.79 1--
2024-06-23 03:40 am 23.052.14-33.86-- 4.04 1--
2024-06-23 03:39 am 32.850.97-33.89-- 5.30 1--
2024-06-23 03:34 am 13.154.95-33.84-- 3.73 1--
2024-06-23 03:33 am 6.656.12-33.81-- 3.60 1--
2024-06-23 03:12 am 6.655.31-33.84-- 3.42 0--
2024-06-23 03:11 am 13.154.50-33.85-- 3.98 1--
2024-06-23 03:10 am 26.252.00-33.87-- 4.87 1--
2024-06-23 03:09 am 32.850.70-33.89-- 4.46 1--
2024-06-23 03:08 am 36.150.61-33.89-- 3.58 1--
2024-06-23 03:05 am 19.753.47-33.84-- 4.44 1--
2024-06-23 03:04 am 13.154.72-33.84-- 4.01 1--
2024-06-23 03:03 am 9.855.20-33.84-- 4.02 1--
2024-06-23 02:43 am 3.356.16-33.84-- 3.71 0--
2024-06-23 02:42 am 9.854.91-33.84-- 3.85 1--
2024-06-23 02:41 am 16.453.92-33.85-- 3.92 1--
2024-06-23 02:40 am 26.251.93-33.87-- 4.95 1--
2024-06-23 02:39 am 32.850.68-33.89-- 5.06 1--
2024-06-23 02:38 am 36.150.61-33.90-- 4.76 1--
2024-06-23 02:34 am 13.154.77-33.84-- 3.93 1--
2024-06-23 02:33 am 6.655.92-33.82-- 3.93 1--
2024-06-23 02:13 am 6.655.74-33.85-- 4.37 1--
2024-06-23 02:12 am 13.154.75-33.84-- 4.43 1--
2024-06-23 02:11 am 19.752.61-33.86-- 3.94 1--
2024-06-23 02:10 am 29.551.21-33.88-- 4.98 1--
2024-06-23 02:09 am 36.150.65-33.89-- 4.92 1--
2024-06-23 02:05 am 19.753.35-33.83-- 4.02 1--
2024-06-23 02:04 am 13.154.95-33.84-- 4.69 1--
2024-06-23 02:03 am 6.656.23-33.84-- 3.88 0--
2024-06-23 01:43 am 6.656.10-33.84-- 4.13 0--
2024-06-23 01:42 am 13.154.93-33.84-- 4.40 1--
2024-06-23 01:41 am 19.753.31-33.85-- 4.24 1--
2024-06-23 01:40 am 29.551.10-33.89-- 5.04 1--
2024-06-23 01:39 am 36.150.65-33.89-- 4.05 1--
2024-06-23 01:34 am 13.155.18-33.84-- 4.45 1--
2024-06-23 01:33 am 9.855.87-33.84-- 3.92 0--
2024-06-23 01:13 am 6.655.80-33.84-- 4.37 1--
2024-06-23 01:12 am 13.155.06-33.84-- 4.30 1--
2024-06-23 01:11 am 19.752.92-33.85-- 4.54 1--
2024-06-23 01:10 am 29.550.79-33.89-- 5.43 1--
2024-06-23 01:09 am 36.150.61-33.89-- 3.74 1--
2024-06-23 01:05 am 19.753.37-33.84-- 4.56 1--
2024-06-23 01:04 am 13.155.24-33.84-- 4.68 1--
2024-06-23 01:03 am 9.855.81-33.83-- 4.15 1--
2024-06-23 12:43 am 9.855.29-33.84-- 4.09 1--
2024-06-23 12:42 am 16.454.32-33.85-- 4.43 1--
2024-06-23 12:41 am 23.052.48-33.85-- 4.96 1--
2024-06-23 12:40 am 32.850.63-33.89-- 4.57 1--
2024-06-23 12:39 am 39.450.56-33.89-- 3.72 1--
2024-06-23 12:34 am 13.155.18-33.84-- 4.42 1--
2024-06-23 12:33 am 9.855.53-33.84-- 4.31 1--
2024-06-23 12:13 am 6.655.53-33.84-- 4.10 1--
2024-06-23 12:12 am 16.454.48-33.85-- 4.46 1--
2024-06-23 12:11 am 23.052.59-33.85-- 5.03 1--
2024-06-23 12:10 am 32.850.59-33.89-- 4.82 1--
2024-06-23 12:09 am 39.450.54-33.90-- 3.53 1--
2024-06-23 12:05 am 19.753.74-33.83-- 4.64 1--
2024-06-23 12:04 am 16.455.09-33.84-- 4.38 1--
2024-06-23 12:03 am 9.855.54-33.84-- 4.44 1--